Weather History for EHKV - January, 2014

Change the Weather History Date:

Thursday, January 16, 2014

  Actual Average Record
Temperature  
Mean Temperature 48 °F -  
Max Temperature 50 °F - - ()
Min Temperature 46 °F - - ()
Degree Days  
Heating Degree Days 17    
Moisture  
Dew Point 45 °F    
Average Humidity 85    
Maximum Humidity 93    
Minimum Humidity 75    
Precipitation  
Precipitation 0.00 in - - ()
Sea Level Pressure  
Sea Level Pressure 29.35 in    
Wind  
Wind Speed 25 mph ()    
Max Wind Speed 33 mph    
Max Gust Speed -    
Visibility 6.5 miles    
Events Rain    
T = Trace of Precipitation, MM = Missing Value Source: Averaged Metar Reports

Daily Weather History Graph

Daily Weather History Graph

Search for Another Location

Airport or City:

Trip Planner

Search our weather history database for the weather conditions in past years. The results will help you decide how hot, cold, wet, or windy it might be!

Date:

Astronomy

Jan. 16, 2014 Rise Set
Actual Time 8:51 AM CET 4:59 PM CET
Civil Twilight 8:11 AM CET 5:39 PM CET
Nautical Twilight 7:27 AM CET 6:23 PM CET
Astronomical Twilight 6:45 AM CET 7:05 PM CET
Moon 5:50 PM CET (1/16) 8:24 AM CET (1/16)
Length of Visible Light 9h 28m
Length of Day
8h 07m
Full, 100% of the Moon is Illuminated
Jan 16
Full
Jan 24
Last Quarter
Jan 30
New
Feb 6
First Quarter
Feb 15
Full

Hourly Weather History & Observations

Time (CET) Temp. Windchill Dew Point Humidity Pressure Visibility Wind Dir Wind Speed Gust Speed Precip Events Conditions
12:00 AM 49 °F - 47 °F 88% 29.46 in 5 mi SSW 24.6 mph - -   Mist
12:25 AM 50.0 °F - 46.4 °F 87% 29.44 in 5.0 mi SSW 26.5 mph - N/A   Overcast
12:55 AM 50.0 °F - 46.4 °F 87% 29.44 in 3.7 mi South 28.8 mph - N/A Rain Light Rain
1:00 AM 49 °F - 47 °F 89% 29.44 in 4 mi SSW 22.4 mph - - Rain Light Rain Showers
1:25 AM 48.2 °F - 46.4 °F 93% 29.42 in 3.1 mi South 27.6 mph - N/A   Overcast
1:55 AM 48.2 °F - 46.4 °F 93% 29.42 in 3.7 mi South 31.1 mph - N/A   Overcast
2:00 AM 49 °F - 47 °F 88% 29.43 in 4 mi South 24.6 mph - - Rain Rain
2:25 AM 48.2 °F - 46.4 °F 93% 29.42 in 4.3 mi South 28.8 mph - N/A   Overcast
2:55 AM 50.0 °F - 46.4 °F 87% 29.42 in 4.3 mi SSW 32.2 mph - N/A   Overcast
3:00 AM 49 °F - 47 °F 89% 29.42 in 5 mi SSW 26.8 mph - -   Mist
3:25 AM 50.0 °F - 46.4 °F 87% 29.42 in 5.0 mi SSW 32.2 mph - N/A   Mostly Cloudy
3:55 AM 50.0 °F - 46.4 °F 87% 29.39 in 4.3 mi South 29.9 mph - N/A   Mostly Cloudy
4:00 AM 49 °F - 47 °F 90% 29.41 in 4 mi South 24.6 mph - -   Mist
4:25 AM 50.0 °F - 46.4 °F 87% 29.39 in 5.0 mi South 31.1 mph - N/A   Mostly Cloudy
4:55 AM 50.0 °F - 46.4 °F 87% 29.39 in 5.6 mi South 29.9 mph - N/A   Overcast
5:00 AM 49 °F - 47 °F 88% 29.39 in 6 mi South 26.8 mph - -   Mist
5:25 AM 50.0 °F - 46.4 °F 87% 29.36 in 5.6 mi SSW 32.2 mph - N/A   Overcast
5:55 AM 50.0 °F - 46.4 °F 87% 29.36 in 6.2 mi SSW 32.2 mph - N/A   Overcast
6:00 AM 50 °F - 47 °F 84% 29.37 in 6 mi SSW 26.8 mph - -   Partly Cloudy
6:25 AM 50.0 °F - 46.4 °F 87% 29.36 in 6.2 mi SSW 31.1 mph - N/A   Mostly Cloudy
6:55 AM 50.0 °F - 46.4 °F 87% 29.36 in 6.2 mi South 28.8 mph - N/A   Mostly Cloudy
7:00 AM 50 °F - 46 °F 83% 29.37 in 7 mi South 24.6 mph - -   Partly Cloudy
7:25 AM 50.0 °F - 46.4 °F 87% 29.36 in 6.2 mi South 28.8 mph - N/A   Mostly Cloudy
7:55 AM 50.0 °F - 46.4 °F 87% 29.36 in 6.2 mi South 32.2 mph - N/A   Mostly Cloudy
8:00 AM 50 °F - 47 °F 84% 29.36 in 7 mi SSW 29.1 mph - -   Overcast
8:25 AM 50.0 °F - 46.4 °F 87% 29.36 in 6.2 mi SSW 33.4 mph - N/A   Mostly Cloudy
8:55 AM 50.0 °F - 46.4 °F 87% 29.36 in 6.2 mi SSW 31.1 mph - N/A   Mostly Cloudy
9:00 AM 50 °F - 47 °F 84% 29.37 in 8 mi SSW 24.6 mph - -   Overcast
9:25 AM 50.0 °F - 46.4 °F 87% 29.36 in 6.2 mi South 29.9 mph - N/A   Mostly Cloudy
9:55 AM 50.0 °F - 46.4 °F 87% 29.36 in 6.2 mi SSW 28.8 mph - N/A   Mostly Cloudy
10:00 AM 50 °F - 46 °F 83% 29.37 in 8 mi SSW 24.6 mph - -   Overcast
10:25 AM 50.0 °F - 46.4 °F 87% 29.36 in 6.2 mi SSW 27.6 mph - N/A   Partly Cloudy
10:55 AM 50.0 °F - 46.4 °F 87% 29.36 in 6.2 mi SSW 26.5 mph - N/A   Partly Cloudy
11:00 AM 50 °F - 46 °F 82% 29.38 in 9 mi SSW 22.4 mph - -   Overcast
11:25 AM 50.0 °F - 46.4 °F 87% 29.36 in 6.2 mi SSW 25.3 mph - N/A   Mostly Cloudy
11:55 AM 50.0 °F - 46.4 °F 87% 29.36 in 6.2 mi SSW 26.5 mph - N/A   Mostly Cloudy
12:00 PM 50 °F - 46 °F 82% 29.37 in 9 mi SSW 22.4 mph - -   Overcast
12:25 PM 50.0 °F - 46.4 °F 87% 29.36 in 6.2 mi SSW 26.5 mph - N/A   Overcast
12:55 PM 50.0 °F - 46.4 °F 87% 29.36 in 6.2 mi SSW 24.2 mph - N/A Rain Light Rain
1:00 PM 49 °F - 46 °F 86% 29.35 in 8 mi SSW 20.1 mph - - Rain Light Rain Showers
1:25 PM 48.2 °F - 42.8 °F 82% 29.36 in 6.2 mi SSW 20.7 mph - N/A Rain Light Rain
1:55 PM 50.0 °F - 42.8 °F 76% 29.33 in 6.2 mi SSW 17.3 mph - N/A Rain Light Rain
2:00 PM 50 °F - 46 °F 80% 29.35 in 9 mi SSW 15.7 mph - - Rain Heavy Rain
2:25 PM 50.0 °F - 46.4 °F 87% 29.33 in 6.2 mi SSW 21.9 mph - N/A Rain Light Rain Showers
2:55 PM 48.2 °F - 46.4 °F 93% 29.33 in 6.2 mi SSW 21.9 mph - N/A Rain Light Rain
3:00 PM 49 °F - 46 °F 86% 29.33 in 8 mi SSW 20.1 mph - - Rain Heavy Rain
3:25 PM 48.2 °F - 44.6 °F 87% 29.33 in 5.0 mi SSW 21.9 mph - N/A Rain Light Rain Showers
3:55 PM 46.4 °F 38.5 °F 42.8 °F 87% 29.33 in 4.3 mi SW 21.9 mph - N/A Rain Light Rain
4:00 PM 46 °F - 42 °F 83% 29.34 in 6 mi SW 17.9 mph - - Rain Rain
4:25 PM 46.4 °F 40.7 °F 42.8 °F 87% 29.33 in 1.6 mi SW 12.7 mph - N/A Rain Heavy Rain Showers
4:55 PM 48.2 °F - 44.6 °F 87% 29.33 in 6.2 mi SSW 21.9 mph - N/A Rain Drizzle
5:00 PM 48 °F - 44 °F 82% 29.32 in 8 mi SSW 20.1 mph - - Rain Rain
5:25 PM 48.2 °F - 44.6 °F 87% 29.30 in 6.2 mi SSW 26.5 mph - N/A Rain Light Rain
5:55 PM 48.2 °F - 42.8 °F 82% 29.30 in 6.2 mi SSW 25.3 mph - N/A   Mostly Cloudy
6:00 PM 49 °F - 44 °F 75% 29.31 in 13 mi SSW 22.4 mph - - Rain Rain
6:25 PM 48.2 °F - 42.8 °F 82% 29.30 in 6.2 mi SSW 26.5 mph - N/A   Scattered Clouds
6:55 PM 48.2 °F - 42.8 °F 82% 29.30 in 6.2 mi SSW 28.8 mph - N/A   Mostly Cloudy
7:00 PM 48 °F - 43 °F 75% 29.32 in 15 mi SSW 22.4 mph - -   Partly Cloudy
7:25 PM 48.2 °F - 42.8 °F 82% 29.30 in 6.2 mi SSW 27.6 mph - N/A   Mostly Cloudy
7:55 PM 48.2 °F - 42.8 °F 82% 29.30 in 6.2 mi SSW 28.8 mph - N/A   Scattered Clouds
8:00 PM 48 °F - 43 °F 77% 29.32 in 13 mi SSW 22.4 mph - -   Partly Cloudy
8:25 PM 48.2 °F - 42.8 °F 82% 29.30 in 6.2 mi SSW 28.8 mph - N/A   Mostly Cloudy
8:55 PM 48.2 °F - 42.8 °F 82% 29.30 in 6.2 mi SSW 28.8 mph - N/A   Mostly Cloudy
9:00 PM 48 °F - 44 °F 80% 29.32 in 10 mi SSW 22.4 mph - -   Scattered Clouds
9:25 PM 48.2 °F - 42.8 °F 82% 29.30 in 6.2 mi South 26.5 mph - N/A   Mostly Cloudy
9:55 PM 48.2 °F - 44.6 °F 87% 29.30 in 6.2 mi South 28.8 mph - N/A   Scattered Clouds
10:00 PM 48 °F - 44 °F 79% 29.31 in 12 mi South 24.6 mph - -   Scattered Clouds
10:25 PM 48.2 °F - 44.6 °F 87% 29.30 in 6.2 mi South 28.8 mph - N/A   Scattered Clouds
10:55 PM 48.2 °F - 44.6 °F 87% 29.30 in 6.2 mi South 27.6 mph - N/A   Mostly Cloudy
11:00 PM 49 °F - 44 °F 76% 29.31 in 10 mi South 24.6 mph - -   Partly Cloudy
11:25 PM 48.2 °F - 44.6 °F 87% 29.30 in 6.2 mi South 27.6 mph - N/A   Mostly Cloudy
11:55 PM 48.2 °F - 42.8 °F 82% 29.30 in 6.2 mi South 28.8 mph - N/A   Mostly Cloudy